Météo par heure à Al Hillah

Ce jour, 13 Mai, Jeudi

Heure Température Précipitation Vent Pression Humidité
00:00 +34°C° 0 mm 2 m/s 750 mmHg 21%
01:00 +34°C° 0 mm 2 m/s 750 mmHg 21%
02:00 +32°C° 0 mm 1 m/s 750 mmHg 22%
03:00 +32°C° 0 mm 1 m/s 750 mmHg 23%
04:00 +32°C° 0 mm 1 m/s 750 mmHg 22%
05:00 +32°C° 0 mm 1 m/s 751 mmHg 22%
06:00 +32°C° 0 mm 1 m/s 751 mmHg 22%
07:00 +34°C° 0 mm 1 m/s 751 mmHg 19%
08:00 +36°C° 0 mm 1 m/s 751 mmHg 17%
09:00 +36°C° 0 mm 0 m/s 751 mmHg 14%
10:00 +37°C° 0 mm 0 m/s 751 mmHg 13%
11:00 +39°C° 0 mm 0 m/s 751 mmHg 11%
12:00 +40°C° 0 mm 0 m/s 750 mmHg 10%
13:00 +44°C° 0 mm 1 m/s 750 mmHg 9%
14:00 +44°C° 0 mm 1 m/s 749 mmHg 8%
15:00 +45°C° 0 mm 1 m/s 748 mmHg 7%
16:00 +46°C° 0 mm 2 m/s 748 mmHg 7%
17:00 +46°C° 0 mm 2 m/s 748 mmHg 7%
18:00 +45°C° 0 mm 3 m/s 748 mmHg 7%
19:00 +43°C° 0 mm 3 m/s 748 mmHg 8%
20:00 +42°C° 0 mm 4 m/s 749 mmHg 10%
21:00 +40°C° 0 mm 4 m/s 749 mmHg 11%
22:00 +38°C° 0 mm 4 m/s 749 mmHg 11%
23:00 +37°C° 0 mm 4 m/s 749 mmHg 12%

Demain, 14 Mai, Vendredi

Heure Température Précipitation Vent Pression Humidité
00:00 +36°C° 0 mm 4 m/s 749 mmHg 12%
01:00 +36°C° 0 mm 4 m/s 749 mmHg 13%
02:00 +35°C° 0 mm 3 m/s 749 mmHg 13%
03:00 +35°C° 0 mm 3 m/s 749 mmHg 13%
04:00 +35°C° 0 mm 3 m/s 749 mmHg 14%
05:00 +34°C° 0 mm 3 m/s 749 mmHg 14%
06:00 +34°C° 0 mm 2 m/s 750 mmHg 14%
07:00 +37°C° 0 mm 2 m/s 750 mmHg 12%
08:00 +39°C° 0 mm 2 m/s 750 mmHg 11%
09:00 +41°C° 0 mm 2 m/s 750 mmHg 9%
10:00 +42°C° 0 mm 2 m/s 750 mmHg 8%
11:00 +45°C° 0 mm 3 m/s 750 mmHg 7%
12:00 +46°C° 0 mm 3 m/s 750 mmHg 6%
13:00 +47°C° 0 mm 5 m/s 749 mmHg 6%
14:00 +48°C° 0 mm 6 m/s 749 mmHg 6%
15:00 +49°C° 0 mm 8 m/s 748 mmHg 6%
16:00 +48°C° 0 mm 8 m/s 748 mmHg 6%
17:00 +46°C° 0 mm 8 m/s 748 mmHg 6%
18:00 +45°C° 0 mm 8 m/s 748 mmHg 6%
19:00 +44°C° 0 mm 7 m/s 748 mmHg 7%
20:00 +41°C° 0 mm 6 m/s 749 mmHg 8%
21:00 +40°C° 0 mm 5 m/s 749 mmHg 9%
22:00 +39°C° 0 mm 5 m/s 749 mmHg 10%
23:00 +37°C° 0 mm 5 m/s 749 mmHg 10%

Après-demain, 15 Mai, Samedi

Heure Température Précipitation Vent Pression Humidité
00:00 +37°C° 0 mm 5 m/s 749 mmHg 11%
01:00 +36°C° 0 mm 6 m/s 749 mmHg 12%
02:00 +35°C° 0 mm 6 m/s 749 mmHg 13%
03:00 +34°C° 0 mm 7 m/s 749 mmHg 15%
04:00 +34°C° 0 mm 6 m/s 749 mmHg 15%
05:00 +33°C° 0 mm 6 m/s 749 mmHg 16%
06:00 +33°C° 0 mm 5 m/s 749 mmHg 16%
07:00 +35°C° 0 mm 6 m/s 750 mmHg 15%
08:00 +38°C° 0 mm 6 m/s 750 mmHg 13%
09:00 +40°C° 0 mm 7 m/s 750 mmHg 11%
10:00 +43°C° 0 mm 7 m/s 750 mmHg 10%
11:00 +44°C° 0 mm 7 m/s 750 mmHg 9%
12:00 +46°C° 0 mm 7 m/s 749 mmHg 8%
13:00 +46°C° 0 mm 8 m/s 749 mmHg 7%
14:00 +46°C° 0 mm 8 m/s 749 mmHg 7%
15:00 +46°C° 0 mm 8 m/s 748 mmHg 7%
16:00 +45°C° 0 mm 8 m/s 748 mmHg 7%
17:00 +45°C° 0 mm 8 m/s 748 mmHg 7%
18:00 +44°C° 0 mm 8 m/s 748 mmHg 7%
19:00 +41°C° 0 mm 7 m/s 748 mmHg 8%
20:00 +40°C° 0 mm 7 m/s 749 mmHg 9%
21:00 +38°C° 0 mm 6 m/s 749 mmHg 10%
22:00 +38°C° 0 mm 6 m/s 749 mmHg 10%
23:00 +36°C° 0 mm 6 m/s 749 mmHg 10%

16 Mai, Dimanche

Heure Température Précipitation Vent Pression Humidité
00:00 +35°C° 0 mm 6 m/s 749 mmHg 10%
01:00 +35°C° 0 mm 5 m/s 748 mmHg 10%
02:00 +34°C° 0 mm 5 m/s 748 mmHg 11%
03:00 +34°C° 0 mm 5 m/s 748 mmHg 12%
04:00 +33°C° 0 mm 4 m/s 748 mmHg 12%
05:00 +33°C° 0 mm 4 m/s 749 mmHg 13%
06:00 +32°C° 0 mm 4 m/s 749 mmHg 13%
07:00 +35°C° 0 mm 4 m/s 749 mmHg 11%
08:00 +37°C° 0 mm 5 m/s 749 mmHg 9%
09:00 +41°C° 0 mm 5 m/s 750 mmHg 7%
10:00 +42°C° 0 mm 5 m/s 749 mmHg 6%
11:00 +44°C° 0 mm 4 m/s 749 mmHg 6%
12:00 +45°C° 0 mm 4 m/s 749 mmHg 5%
13:00 +46°C° 0 mm 5 m/s 749 mmHg 5%
14:00 +47°C° 0 mm 5 m/s 749 mmHg 5%
15:00 +47°C° 0 mm 6 m/s 748 mmHg 5%
16:00 +46°C° 0 mm 6 m/s 748 mmHg 5%
17:00 +45°C° 0 mm 5 m/s 748 mmHg 5%
18:00 +45°C° 0 mm 5 m/s 748 mmHg 5%
19:00 +42°C° 0 mm 4 m/s 749 mmHg 6%
20:00 +40°C° 0 mm 4 m/s 749 mmHg 6%
21:00 +38°C° 0 mm 4 m/s 749 mmHg 7%
22:00 +37°C° 0 mm 4 m/s 749 mmHg 7%
23:00 +36°C° 0 mm 3 m/s 748 mmHg 8%

17 Mai, Lundi

Heure Température Précipitation Vent Pression Humidité
00:00 +36°C° 0 mm 3 m/s 748 mmHg 8%
01:00 +35°C° 0 mm 3 m/s 748 mmHg 8%
02:00 +35°C° 0 mm 3 m/s 748 mmHg 8%
03:00 +34°C° 0 mm 3 m/s 748 mmHg 9%
04:00 +34°C° 0 mm 3 m/s 748 mmHg 9%
05:00 +34°C° 0 mm 2 m/s 749 mmHg 9%
06:00 +34°C° 0 mm 2 m/s 749 mmHg 9%
07:00 +36°C° 0 mm 2 m/s 750 mmHg 8%
08:00 +38°C° 0 mm 2 m/s 750 mmHg 7%
09:00 +40°C° 0 mm 2 m/s 750 mmHg 6%
10:00 +43°C° 0 mm 3 m/s 750 mmHg 5%
11:00 +45°C° 0 mm 4 m/s 750 mmHg 4%
12:00 +48°C° 0 mm 6 m/s 749 mmHg 4%
13:00 +48°C° 0 mm 5 m/s 749 mmHg 4%
14:00 +48°C° 0 mm 5 m/s 748 mmHg 4%
15:00 +49°C° 0 mm 4 m/s 748 mmHg 4%
16:00 +48°C° 0 mm 4 m/s 747 mmHg 4%
17:00 +48°C° 0 mm 5 m/s 747 mmHg 4%
18:00 +47°C° 0 mm 5 m/s 747 mmHg 4%
19:00 +46°C° 0 mm 5 m/s 747 mmHg 5%
20:00 +43°C° 0 mm 4 m/s 747 mmHg 7%
21:00 +41°C° 0 mm 4 m/s 747 mmHg 8%
22:00 +39°C° 0 mm 5 m/s 748 mmHg 10%
23:00 +38°C° 0 mm 6 m/s 748 mmHg 13%

18 Mai, Mardi

Heure Température Précipitation Vent Pression Humidité
00:00 +35°C° 0 mm 7 m/s 749 mmHg 15%
01:00 +34°C° 0 mm 6 m/s 749 mmHg 15%
02:00 +34°C° 0 mm 6 m/s 749 mmHg 15%
03:00 +33°C° 0 mm 6 m/s 749 mmHg 15%
04:00 +33°C° 0 mm 6 m/s 749 mmHg 16%
05:00 +32°C° 0 mm 5 m/s 750 mmHg 16%
06:00 +32°C° 0 mm 5 m/s 750 mmHg 16%
07:00 +34°C° 0 mm 6 m/s 750 mmHg 15%
08:00 +37°C° 0 mm 8 m/s 750 mmHg 13%
09:00 +39°C° 0 mm 9 m/s 751 mmHg 11%
10:00 +41°C° 0 mm 8 m/s 751 mmHg 10%
11:00 +43°C° 0 mm 8 m/s 750 mmHg 9%
12:00 +44°C° 0 mm 7 m/s 750 mmHg 8%
13:00 +45°C° 0 mm 8 m/s 750 mmHg 8%
14:00 +45°C° 0 mm 8 m/s 750 mmHg 8%
15:00 +45°C° 0 mm 8 m/s 750 mmHg 8%
16:00 +44°C° 0 mm 8 m/s 750 mmHg 9%
17:00 +43°C° 0 mm 7 m/s 750 mmHg 10%
18:00 +41°C° 0 mm 7 m/s 750 mmHg 10%
19:00 +39°C° 0 mm 6 m/s 750 mmHg 12%
20:00 +37°C° 0 mm 5 m/s 751 mmHg 13%
21:00 +35°C° 0 mm 5 m/s 751 mmHg 14%
22:00 +34°C° 0 mm 5 m/s 751 mmHg 15%
23:00 +34°C° 0 mm 5 m/s 751 mmHg 16%
Voir plus

Nous avons besoin de votre consentement

Meteoprog et ses fournisseurs de services peuvent stocker et accéder à des données personnelles telles que des cookies, des identifiants d'appareils ou d'autres technologies similaires sur votre appareil et traiter ces données pour personnaliser le contenu et les publicités, ainsi que pour fournir des fonctionnalités de médias sociaux et analyser le trafic.

  • Stocker et/ou accéder à des informations sur votre appareil

    Des cookies, des identifiants d'appareils ou d'autres informations peuvent être stockés ou accessibles sur votre appareil aux fins indiquées ci-dessus.

  • Annonces et contenus personnalisés, mesure des annonces et des contenus, connaissance de l'audience et développement de produits

    Les annonces et le contenu peuvent être personnalisés en fonction d'un profil. D'autres données peuvent être ajoutées pour mieux personnaliser les annonces et le contenu. Les performances des publicités et du contenu peuvent être mesurées. Il est possible d'obtenir des informations sur le public qui a vu les publicités et le contenu. Ces données peuvent être utilisées pour développer ou améliorer l'expérience de l'utilisateur, les systèmes et les logiciels.

En cliquant sur "J'accepte", vous autorisez l'utilisation de cookies, des identifiants d'appareils, des balises web ou d'autres technologies similaires. Vos paramètres peuvent être modifiés dans le navigateur de votre appareil.

Dans certains cas, des intérêts légitimes peuvent être invoqués plutôt qu'un consentement. Vous pouvez en savoir plus à ce sujet dans notre Politique de confidentialité et de cookies.